Miscellaneous Local Product
Issued by NWS North Platte, NE

Home | Current Version | Previous Version | Text Only | Print | Product List | Glossary On
Versions: 1 2 3 4 5 6 7 8 9 10 11 12 13 14 15 16 17 18 19 20 21 22 23 24 25 26 27 28 29 30 31 32 33 34 35 36 37 38 39 40 41 42 43 44 45 46 47 48 49 50
000
AXUS43 KLBF 241810
MISLBF


WESTERN AND NORTH CENTRAL NEBRASKA HOURLY WEATHER ROUNDUP
NATIONAL WEATHER SERVICE NORTH PLATTE NE
100 PM CDT SUN SEP 24 2017

NOTE: "FAIR" INDICATES FEW OR NO CLOUDS BELOW 12,000 FEET WITH NO
SIGNIFICANT WEATHER AND/OR OBSTRUCTIONS TO VISIBILITY.

NOTE: STATIONS NOT REPORTING VARIABLES SUCH AS SKY/WEATHER OR
PRESSURE ARE PROVIDED BY RAWS AND APRS NETWORKS AND ARE NOT UNDER
NATIONAL WEATHER SERVICE QUALITY CONTROL.

...OBSERVATIONS IN AND NEAR THE EASTERN PANHANDLE OF NEBRASKA...

CITY           SKY/WX    TMP DP  RH WIND       PRES   REMARKS
PINE RIDGE     CLOUDY    48  46  93 NW8       30.05S
GORDON         CLOUDY    48  45  90 N12       30.04R
CHADRON        CLOUDY    54  42  64 NE18      30.05S
ALLIANCE       CLOUDY    51  43  74 N12       30.03R
SIDNEY         CLOUDY    50  44  80 N15       30.02S
$$

...OBSERVATIONS IN NORTHERN NEBRASKA AND FAR SOUTHERN SOUTH DAKOTA...

CITY           SKY/WX    TMP DP  RH WIND       PRES   REMARKS
WINNER         CLOUDY    54  51  90 NW15      29.99S
VALENTINE      CLOUDY    52  49  89 NW13      30.01S
THEDFORD       CLOUDY    54  49  84 NW10      30.02R
AINSWORTH      CLOUDY    52  51  97 N13       29.99S
O`NEILL        DRIZZLE   55  55 100 NW8       29.97S
ORD            LGT RAIN  56  52  86 N9        29.95S
BROKEN BOW     LGT RAIN  55  52  89 N13       29.98R
HALSEY           N/A     52  51  95 NW6         N/A
BUTTE            N/A     53  51  95 NW7G14      N/A
CHAMBERS         N/A     57  55  94 W3          N/A
EWING            N/A     57  55  95 NW8         N/A
$$

...OBSERVATIONS IN SOUTHWEST NEBRASKA AND FAR NORTHEAST COLORADO...

CITY           SKY/WX    TMP DP  RH WIND       PRES   REMARKS
WRAY           CLOUDY    50  48  93 NE9       30.01S
HOLYOKE        CLOUDY    54  46  76 NE10      30.01S
IMPERIAL       CLOUDY    52  48  86 N9        30.01R
OGALLALA       CLOUDY    55  48  77 N10       30.01R
NORTH PLATTE   CLOUDY    56  50  80 N9        30.00R
MCCOOK         LGT RAIN  55  54  96 N9        29.99R FOG
LEXINGTON      CLOUDY    55  53  93 N7        29.99R
STAPLETON        N/A     52  49  90 CALM        N/A
GOTHENBURG       N/A     53  49  85 N8          N/A
CALLAWAY         N/A     53  52  97 N12         N/A
$$

...OBSERVATIONS IN CENTRAL LINCOLN COUNTY AREA...

CITY           SKY/WX    TMP DP  RH WIND       PRES   REMARKS
N.P. AIRPORT   CLOUDY    56  50  80 N9        30.00R
N.P. DOWNTOWN    N/A     54  50  87 NE6         N/A
N.P. SOUTHEAST   N/A     54  50  87 N5G12       N/A
N.P. HILLCREST   N/A     54  50  87 NE13        N/A
$$

...SOME OBSERVATIONS FROM AROUND THE REGION...

CITY           SKY/WX    TMP DP  RH WIND       PRES   REMARKS
DENVER         CLOUDY    47  45  93 NE13      30.00F FOG
LIMON            N/A    N/A N/A N/A MISG      30.01S
ASPEN          SUNNY     54  33  45 CALM      29.90F
LARAMIE        CLOUDY    45  36  70 E16       29.99S
CASPER         CLOUDY    40  37  89 NE10      30.06S WCI  33
CHEYENNE       CLOUDY    42  40  92 E10       30.03S
SCOTTSBLUFF    CLOUDY    52  43  71 N8        30.04S
GRAND ISLAND   CLOUDY    76  63  64 SW10      29.93R
OMAHA          PTSUNNY   87  66  49 S14       29.90F
SIOUX FALLS    CLOUDY    80  68  66 S14G24    29.86F
PIERRE         CLOUDY    53  48  83 NW15      29.98R
RAPID CITY     CLOUDY    48  43  81 N16       30.06R
BISMARCK       CLOUDY    50  48  93 N8        30.01R
KANSAS CITY    MOSUNNY   86  69  56 SW13      29.98F HX  90
HILL CITY      CLOUDY    61  60  97 NW8       29.96F
WICHITA        PTSUNNY   86  65  49 S15G28    29.92F
DODGE CITY     PTSUNNY   69  64  84 SE12      29.94S
OKLAHOMA CITY  PTSUNNY   85  63  47 S14G28    29.94F
DALLAS         MOSUNNY   89  67  47 S16       29.92F HX  92
$$




USA.gov is the U.S. government's official web portal to all federal, state and local government web resources and services.